KI0MQ Weather Reports


Display with metric or nautical units.
time (UTC)temp
F
wind
direction
speed
MPH
gust
MPH
rain 1hr
in
rain 24hr
in
rain mn
in
humidity
%
barometer
mb
20260505215003 57 320 3.0 9.0 0.00 0.04 0.01 39 1011.5
20260505214508 58 324 3.0 7.0 0.00 0.04 0.01 40 1011.6
20260505214003 58 342 3.0 12.0 0.00 0.04 0.01 40 1011.6
20260505213503 57 351 4.0 12.0 0.00 0.04 0.01 40 1011.6
20260505213009 57 352 3.0 10.0 0.00 0.04 0.01 40 1011.7
20260505212503 58 341 2.0 10.0 0.00 0.04 0.01 40 1011.8
20260505212003 58 330 1.0 8.0 0.00 0.04 0.01 40 1011.9
20260505211508 57 331 2.0 7.0 0.00 0.04 0.01 41 1011.9
20260505211003 57 340 3.0 8.0 0.00 0.04 0.01 40 1012.0
20260505210504 58 343 2.0 8.0 0.00 0.04 0.01 40 1012.0
20260505210009 58 341 2.0 7.0 0.00 0.04 0.01 41 1012.1
20260505205503 58 9 4.0 12.0 0.00 0.04 0.01 41 1012.1
20260505205004 58 11 5.0 12.0 0.00 0.04 0.01 40 1012.2
20260505204508 58 350 4.0 12.0 0.00 0.04 0.01 40 1012.3
20260505204003 58 335 4.0 10.0 0.00 0.04 0.01 39 1012.2
20260505203504 59 348 4.0 9.0 0.00 0.04 0.01 39 1012.1
20260505202503 59 321 3.0 11.0 0.00 0.04 0.01 39 1012.2
20260505202003 60 300 2.0 8.0 0.00 0.04 0.01 38 1012.3
20260505201508 60 295 2.0 7.0 0.00 0.04 0.01 40 1012.3
20260505200503 59 356 3.0 10.0 0.00 0.04 0.01 38 1012.4
20260505200008 59 355 3.0 11.0 0.00 0.04 0.01 39 1012.2
20260505195503 59 347 2.0 11.0 0.00 0.04 0.01 40 1012.4
20260505194508 58 357 3.0 9.0 0.00 0.04 0.01 42 1012.4
20260505194005 59 357 2.0 9.0 0.00 0.04 0.01 41 1012.4
20260505193503 58 351 3.0 9.0 0.00 0.04 0.01 41 1012.6
20260505193009 58 342 3.0 11.0 0.00 0.04 0.01 40 1012.6
20260505192504 58 339 3.0 12.0 0.00 0.04 0.01 41 1012.7
20260505192003 58 330 3.0 12.0 0.00 0.04 0.01 40 1012.7
20260505191508 58 320 2.0 8.0 0.00 0.04 0.01 41 1012.7
20260505190503 58 9 3.0 9.0 0.00 0.04 0.01 44 1012.7
20260505190008 57 19 3.0 9.0 0.00 0.04 0.01 41 1012.7
20260505185504 57 8 2.0 9.0 0.00 0.04 0.01 41 1012.8
20260505185003 57 337 2.0 8.0 0.00 0.04 0.01 43 1012.9
20260505184508 57 2 2.0 9.0 0.00 0.04 0.01 44 1012.8
20260505184003 57 18 2.0 9.0 0.00 0.04 0.01 46 1012.9
20260505183505 57 21 2.0 6.0 0.00 0.04 0.01 44 1012.8
20260505182504 56 355 3.0 9.0 0.00 0.04 0.01 44 1012.9
20260505182003 56 354 2.0 7.0 0.00 0.04 0.01 44 1013.1
20260505181508 56 354 1.0 7.0 0.00 0.04 0.01 45 1013.1
20260505181005 56 166 1.0 3.0 0.00 0.04 0.01 47 1013.2
20260505180503 56 200 1.0 4.0 0.00 0.04 0.01 47 1013.1
20260505175503 56 336 1.0 7.0 0.00 0.04 0.01 48 1013.3
20260505175003 56 341 2.0 7.0 0.00 0.04 0.01 47 1013.3
20260505174508 56 314 2.0 6.0 0.00 0.04 0.01 47 1013.1
20260505174003 56 358 2.0 7.0 0.00 0.04 0.01 49 1013.2
20260505173505 56 350 2.0 7.0 0.00 0.04 0.01 48 1013.3
20260505173008 56 333 2.0 7.0 0.00 0.04 0.01 50 1013.4
20260505172504 55 345 2.0 7.0 0.00 0.04 0.01 48 1013.4
20260505171508 55 327 1.0 5.0 0.00 0.04 0.01 52 1013.6
20260505171003 55 356 1.0 6.0 0.00 0.04 0.01 52 1013.5
20260505170008 53 354 2.0 6.0 0.00 0.04 0.01 53 1013.6
20260505165503 53 332 1.0 5.0 0.00 0.04 0.01 54 1013.8
20260505165004 53 323 1.0 6.0 0.00 0.04 0.01 58 1013.8
20260505164508 52 323 2.0 6.0 0.00 0.04 0.01 58 1013.7
20260505164003 53 328 2.0 6.0 0.00 0.04 0.01 58 1013.7
20260505163503 53 332 1.0 6.0 0.00 0.04 0.01 60 1013.7
20260505162003 52 295 0.0 3.0 0.00 0.04 0.01 63 1013.3
20260505161508 51 317 1.0 4.0 0.00 0.04 0.01 65 1013.2
20260505161003 51 316 1.0 4.0 0.00 0.04 0.01 64 1013.2
20260505160505 50 298 1.0 4.0 0.00 0.04 0.01 65 1013.1
20260505152504 49 356 2.0 6.0 0.00 0.04 0.01 67 1013.1
20260505152003 49 339 2.0 6.0 0.00 0.04 0.01 66 1013.0
20260505151508 49 341 2.0 6.0 0.00 0.04 0.01 66 1013.0
20260505151003 49 357 2.0 5.0 0.00 0.04 0.01 65 1012.9
20260505150503 49 355 2.0 8.0 0.00 0.04 0.01 65 1012.9
20260505140503 48 294 0.0 4.0 0.00 0.04 0.01 68 1012.6
20260505125003 48 355 0.0 3.0 0.00 0.04 0.01 77 1011.6
20260505124508 48 356 0.0 2.0 0.00 0.04 0.01 78 1011.5
20260505124003 47 356 0.0 2.0 0.00 0.04 0.01 79 1011.2
20260505123503 47 0 0.0 0.0 0.00 0.04 0.01 79 1011.1
20260505123008 47 0 0.0 0.0 0.00 0.04 0.01 79 1011.2
20260505122503 47 0 0.0 0.0 0.00 0.04 0.01 78 1011.1
20260505122004 47 0 0.0 0.0 0.00 0.04 0.01 79 1010.9
20260505121508 46 0 0.0 0.0 0.00 0.04 0.01 80 1010.8
20260505121003 46 356 0.0 1.0 0.00 0.04 0.01 80 1010.8
20260505120008 46 356 0.0 1.0 0.00 0.04 0.01 82 1010.6
20260505115505 46 0 0.0 0.0 0.00 0.04 0.01 81 1010.4
20260505115003 46 0 0.0 0.0 0.00 0.04 0.01 81 1010.2
20260505114003 46 0 0.0 0.0 0.00 0.04 0.01 81 1009.9
20260505113504 46 0 0.0 0.0 0.00 0.04 0.01 82 1010.1
20260505113009 46 0 0.0 0.0 0.00 0.04 0.01 84 1010.0
20260505112503 46 0 0.0 0.0 0.00 0.04 0.01 84 1010.0
20260505112003 45 0 0.0 0.0 0.00 0.04 0.01 86 1010.1
20260505111510 45 0 0.0 0.0 0.00 0.04 0.01 88 1010.1
20260505111004 45 0 0.0 0.0 0.00 0.04 0.01 89 1010.1
20260505110503 45 0 0.0 0.0 0.00 0.04 0.01 89 1010.2
20260505101508 46 0 0.0 0.0 0.00 0.04 0.01 88 1010.4
20260505101004 46 0 0.0 0.0 0.00 0.04 0.01 88 1010.4
20260505100503 46 0 0.0 0.0 0.00 0.04 0.01 88 1010.3
20260505100008 46 0 0.0 0.0 0.00 0.04 0.01 88 1010.4
20260505095003 47 0 0.0 0.0 0.00 0.04 0.01 88 1010.4
20260505094509 47 0 0.0 0.0 0.00 0.04 0.01 88 1010.3
20260505094004 47 0 0.0 0.0 0.00 0.04 0.01 88 1010.3
20260505093503 47 0 0.0 0.0 0.00 0.04 0.01 88 1010.2
20260505093008 47 356 0.0 1.0 0.00 0.04 0.01 88 1010.1
20260505092503 47 356 0.0 1.0 0.00 0.04 0.01 88 1010.0
20260505091509 47 356 0.0 1.0 0.00 0.04 0.01 88 1009.5
20260505091004 47 0 0.0 0.0 0.00 0.04 0.01 87 1009.5
20260505090503 47 0 0.0 0.0 0.00 0.04 0.01 87 1009.5
20260505090008 48 0 0.0 0.0 0.00 0.04 0.01 87 1009.6
20260505085504 48 0 0.0 0.0 0.00 0.04 0.01 87 1009.5
20260505085003 48 0 0.0 0.0 0.00 0.04 0.01 87 1009.4
20260505084508 48 356 0.0 1.0 0.00 0.04 0.01 87 1009.4
20260505084003 48 356 0.0 1.0 0.00 0.04 0.01 87 1009.4
20260505083504 48 356 0.0 1.0 0.00 0.04 0.01 87 1009.4
20260505083009 48 356 0.0 1.0 0.00 0.04 0.01 88 1009.5
20260505082503 48 0 0.0 0.0 0.00 0.04 0.01 88 1009.4
20260505081508 48 0 0.0 0.0 0.00 0.04 0.01 88 1009.3
20260505081004 48 0 0.0 0.0 0.00 0.04 0.01 89 1009.2
20260505080504 48 0 0.0 0.0 0.00 0.04 0.01 88 1008.9
20260505080008 48 0 0.0 0.0 0.00 0.04 0.01 88 1008.8
20260505075504 48 0 0.0 0.0 0.00 0.04 0.01 88 1008.7
20260505075004 48 356 0.0 1.0 0.00 0.04 0.01 88 1008.7
20260505074510 48 356 0.0 1.0 0.00 0.04 0.01 87 1008.8
20260505073503 48 356 0.0 1.0 0.00 0.04 0.01 87 1008.7
20260505073008 48 356 0.0 1.0 0.00 0.04 0.01 87 1008.8
20260505072504 48 0 0.0 0.0 0.00 0.04 0.01 87 1008.8
20260505072003 48 0 0.0 0.0 0.00 0.04 0.01 88 1008.8
20260505071508 48 0 0.0 0.0 0.00 0.04 0.01 87 1008.7
20260505071003 48 0 0.0 0.0 0.01 0.04 0.01 87 1008.6
20260505065503 48 0 0.0 0.0 0.01 0.04 0.01 85 1008.7
20260505065004 48 0 0.0 0.0 0.01 0.04 0.01 85 1008.2
20260505064004 48 356 0.0 1.0 0.01 0.04 0.01 84 1008.2
20260505063503 48 356 0.0 1.0 0.01 0.04 0.01 83 1008.4
20260505063009 48 356 0.0 1.0 0.01 0.04 0.01 83 1008.7
20260505062503 49 356 0.0 1.0 0.01 0.04 0.01 82 1008.4
20260505061004 49 356 0.0 2.0 0.00 0.03 0.00 78 1009.2
20260505060503 49 356 0.0 2.0 0.00 0.03 0.00 76 1009.2
20260505055503 49 356 0.0 1.0 0.00 0.03 0.00 76 1008.5
20260505055003 50 356 0.0 1.0 0.00 0.03 0.00 75 1008.7
20260505054508 50 356 0.0 2.0 0.02 0.03 0.00 75 1008.9
20260505054005 50 351 1.0 4.0 0.02 0.03 0.00 74 1008.8
20260505053503 50 356 1.0 4.0 0.02 0.03 0.00 73 1008.8
20260505053008 50 7 1.0 4.0 0.02 0.03 0.00 73 1009.0
20260505052503 49 13 1.0 4.0 0.03 0.03 0.00 74 1008.8
20260505052003 49 15 1.0 4.0 0.03 0.03 0.00 74 1008.2
20260505051508 49 15 1.0 4.0 0.03 0.03 0.00 73 1008.2
20260505051003 49 16 0.0 3.0 0.03 0.03 0.00 74 1008.4
20260505041508 55 354 3.0 8.0 0.00 0.00 0.00 54 1009.3
20260505041004 55 10 3.0 8.0 0.00 0.00 0.00 51 1009.1
20260505040503 55 16 3.0 8.0 0.00 0.00 0.00 50 1009.0
20260505040008 56 11 3.0 11.0 0.00 0.00 0.00 48 1009.0
20260505035005 56 1 4.0 12.0 0.00 0.00 0.00 48 1008.6
20260505034508 56 1 4.0 9.0 0.00 0.00 0.00 48 1008.4
20260505034004 56 3 3.0 10.0 0.00 0.00 0.00 47 1008.4
20260505033504 56 11 3.0 11.0 0.00 0.00 0.00 47 1008.2
20260505033009 56 18 3.0 11.0 0.00 0.00 0.00 48 1008.3
20260505032503 56 24 4.0 11.0 0.00 0.00 0.00 47 1007.8
20260505032003 56 25 4.0 11.0 0.00 0.00 0.00 46 1007.9
20260505031508 56 27 5.0 11.0 0.00 0.00 0.00 46 1008.1
20260505031003 57 17 5.0 14.0 0.00 0.00 0.00 46 1008.1
20260505030503 57 11 5.0 14.0 0.00 0.00 0.00 46 1008.1
20260505030008 57 20 4.0 12.0 0.00 0.00 0.00 47 1007.8
20260505025503 57 13 4.0 11.0 0.00 0.00 0.00 48 1007.6
20260505025004 57 11 4.0 18.0 0.00 0.00 0.00 47 1007.7
20260505024508 57 16 4.0 18.0 0.00 0.00 0.00 47 1007.5
20260505024004 57 13 5.0 17.0 0.00 0.00 0.00 47 1007.7
20260505023504 57 20 6.0 14.0 0.00 0.00 0.00 46 1007.2
20260505023008 57 22 6.0 14.0 0.00 0.00 0.00 46 1006.9
20260505022504 58 23 5.0 14.0 0.00 0.00 0.00 46 1006.9
20260505022003 58 22 5.0 13.0 0.00 0.00 0.00 46 1006.9
20260505021508 58 9 5.0 17.0 0.00 0.00 0.00 46 1006.9
20260505021003 58 17 6.0 17.0 0.00 0.00 0.00 46 1006.8
20260505020503 58 22 6.0 19.0 0.00 0.00 0.00 47 1006.6
20260505020008 58 15 5.0 19.0 0.00 0.00 0.00 47 1006.8
20260505015503 59 18 6.0 21.0 0.00 0.00 0.00 47 1006.7
20260505015004 59 17 7.0 21.0 0.00 0.00 0.00 47 1006.8
20260505013503 60 29 5.0 18.0 0.00 0.00 0.00 44 1006.1
20260505013008 61 22 5.0 18.0 0.00 0.00 0.00 44 1006.0
20260505012504 61 23 6.0 16.0 0.00 0.00 0.00 43 1005.8
20260505012004 61 17 6.0 20.0 0.00 0.00 0.00 43 1005.9
20260505011508 62 13 6.0 20.0 0.00 0.00 0.00 42 1005.7
20260505011003 62 26 5.0 17.0 0.00 0.00 0.00 42 1005.8
20260505010504 62 26 6.0 18.0 0.00 0.00 0.00 41 1005.7
20260505010009 63 16 6.0 18.0 0.00 0.00 0.00 41 1005.7
20260505005503 64 11 7.0 18.0 0.00 0.00 0.00 40 1005.6
20260505005004 64 14 7.0 17.0 0.00 0.00 0.00 39 1005.4
20260505004004 65 13 4.0 15.0 0.00 0.00 0.00 38 1005.4
20260505003503 66 14 4.0 15.0 0.00 0.00 0.00 38 1005.2
20260505003008 66 16 6.0 18.0 0.00 0.00 0.00 38 1005.2
20260505002505 67 16 8.0 19.0 0.00 0.00 0.00 37 1005.0
20260505002004 68 18 7.0 19.0 0.00 0.00 0.00 37 1004.9
20260505001508 68 14 7.0 20.0 0.00 0.00 0.00 37 1004.7
20260505001004 69 9 7.0 20.0 0.00 0.00 0.00 36 1004.8
20260505000503 69 9 6.0 14.0 0.00 0.00 0.00 36 1004.7
20260505000008 69 8 5.0 14.0 0.00 0.00 0.00 36 1004.5
20260504235505 69 7 5.0 11.0 0.00 0.00 0.00 37 1004.4
20260504235003 70 15 5.0 12.0 0.00 0.00 0.00 37 1004.4
20260504234509 70 24 5.0 13.0 0.00 0.00 0.00 36 1004.5
20260504234003 70 23 5.0 16.0 0.00 0.00 0.00 36 1004.4
20260504233505 70 17 5.0 16.0 0.00 0.00 0.00 35 1004.4
20260504233008 70 11 6.0 17.0 0.00 0.00 0.00 35 1004.4
20260504232503 71 15 7.0 17.0 0.00 0.00 0.00 35 1004.2
20260504232004 71 22 5.0 14.0 0.00 0.00 0.00 34 1004.1
20260504231507 72 22 4.0 13.0 0.00 0.00 0.00 34 1004.0
20260504231004 72 11 4.0 12.0 0.00 0.00 0.00 34 1004.0
20260504230503 73 5 4.0 12.0 0.00 0.00 0.00 34 1004.0
20260504230008 73 20 5.0 12.0 0.00 0.00 0.00 33 1003.8
20260504225504 73 14 5.0 13.0 0.00 0.00 0.00 34 1003.5
20260504225004 73 2 5.0 16.0 0.00 0.00 0.00 34 1003.4
20260504224004 74 13 5.0 14.0 0.00 0.00 0.00 34 1003.3
20260504223504 74 11 5.0 14.0 0.00 0.00 0.00 33 1003.2
20260504223008 74 20 5.0 15.0 0.00 0.00 0.00 33 1003.1
20260504222003 75 18 4.0 15.0 0.00 0.00 0.00 33 1002.9
20260504221508 76 10 4.0 15.0 0.00 0.00 0.00 33 1002.7
20260504221003 76 17 5.0 15.0 0.00 0.00 0.00 34 1002.6
20260504220504 76 20 4.0 15.0 0.00 0.00 0.00 32 1002.6
20260504220009 76 14 4.0 13.0 0.00 0.00 0.00 32 1002.4